Weather History for KTOL - December, 2012

Change the Weather History Date:

Thursday, December 6, 2012

  Actual Average Record
Temperature  
Mean Temperature 29 °F 33 °F  
Max Temperature 37 °F 39 °F 69 °F (1998)
Min Temperature 21 °F 26 °F 0 °F (1964)
Degree Days  
Heating Degree Days 36 32  
Month to date heating degree days 116 188  
Since 1 July heating degree days 1453 1421  
Cooling Degree Days 0 0  
Month to date cooling degree days 0 0  
Year to date cooling degree days 998 793  
Moisture  
Dew Point 24 °F    
Average Humidity 78    
Maximum Humidity 92    
Minimum Humidity 64    
Precipitation  
Precipitation 0.00 in 0.09 in - ()
Month to date precipitation 0.18 0.55  
Year to date precipitation 28.37 32.11  
Snow  
Snow 0.00 in 0.20 in - ()
Month to date snowfall 0.0 1.0  
Since 1 July snowfall T 3.1  
Snow Depth 0.00 in    
Sea Level Pressure  
Sea Level Pressure 30.18 in    
Wind  
Wind Speed 2 mph (SSE)    
Max Wind Speed 9 mph    
Max Gust Speed 14 mph    
Visibility 10 miles    
Events      
T = Trace of Precipitation, MM = Missing Value Source: NWS Daily Summary

Daily Weather History Graph

Daily Weather History Graph

Search for Another Location

Airport or City:

Trip Planner

Search our weather history database for the weather conditions in past years. The results will help you decide how hot, cold, wet, or windy it might be!

Date:

Astronomy

Dec. 06, 2012 Rise Set
Actual Time 7:47 AM EST 5:05 PM EST
Civil Twilight 7:16 AM EST 5:36 PM EST
Nautical Twilight 6:41 AM EST 6:10 PM EST
Astronomical Twilight 6:08 AM EST 6:44 PM EST
Moon No Moon Rise 12:35 PM EST (12/6)
Length of Visible Light 10h 19m
Length of Day
9h 17m
Waning Gibbous, 49% of the Moon is Illuminated
Dec 6
Waning Gibbous
Dec 13
New
Dec 20
First Quarter
Dec 28
Full
Jan 4
Last Quarter

Hourly Weather History & Observations

Time (EST) Temp. Windchill Dew Point Humidity Pressure Visibility Wind Dir Wind Speed Gust Speed Precip Events Conditions
12:52 AM 23.0 °F - 19.9 °F 88% 30.36 in 10.0 mi Calm Calm - N/A   Clear
1:52 AM 21.9 °F - 19.0 °F 89% 30.34 in 10.0 mi Calm Calm - N/A   Clear
2:52 AM 23.0 °F - 19.0 °F 85% 30.34 in 10.0 mi Calm Calm - N/A   Clear
3:52 AM 24.1 °F 19.7 °F 19.0 °F 81% 30.31 in 10.0 mi SE 3.5 mph - N/A   Clear
4:52 AM 27.0 °F 23.0 °F 21.0 °F 78% 30.30 in 10.0 mi SE 3.5 mph - N/A   Clear
5:52 AM 25.0 °F - 19.9 °F 81% 30.30 in 10.0 mi Calm Calm - N/A   Clear
6:52 AM 21.9 °F - 18.0 °F 85% 30.30 in 10.0 mi Calm Calm - N/A   Clear
7:52 AM 25.0 °F - 19.9 °F 81% 30.27 in 10.0 mi Calm Calm - N/A   Clear
8:52 AM 28.0 °F 21.7 °F 21.9 °F 78% 30.24 in 10.0 mi ESE 5.8 mph - N/A   Clear
9:52 AM 30.0 °F 25.2 °F 23.0 °F 75% 30.24 in 10.0 mi SSE 4.6 mph - N/A   Clear
10:52 AM 32.0 °F 26.4 °F 24.1 °F 73% 30.24 in 10.0 mi South 5.8 mph - N/A   Clear
11:52 AM 33.1 °F 26.9 °F 25.0 °F 72% 30.19 in 10.0 mi South 6.9 mph - N/A   Clear
12:52 PM 35.1 °F 31.0 °F 25.0 °F 67% 30.16 in 10.0 mi South 4.6 mph - N/A   Clear
1:52 PM 36.0 °F 32.1 °F 27.0 °F 70% 30.11 in 10.0 mi South 4.6 mph - N/A   Clear
2:52 PM 37.0 °F - 27.0 °F 67% 30.09 in 10.0 mi Calm Calm - N/A   Clear
3:52 PM 37.0 °F 34.5 °F 28.0 °F 70% 30.08 in 10.0 mi SE 3.5 mph - N/A   Clear
4:52 PM 37.0 °F - 28.0 °F 70% 30.07 in 10.0 mi Calm Calm - N/A   Clear
5:52 PM 35.1 °F 32.2 °F 28.0 °F 76% 30.06 in 10.0 mi ESE 3.5 mph - N/A   Clear
6:52 PM 35.1 °F 32.2 °F 28.9 °F 78% 30.06 in 10.0 mi SE 3.5 mph - N/A   Clear
7:52 PM 36.0 °F - 28.9 °F 76% 30.05 in 10.0 mi Calm Calm - N/A   Clear
8:52 PM 36.0 °F - 28.9 °F 76% 30.03 in 10.0 mi Calm Calm - N/A   Clear
9:52 PM 35.1 °F - 28.9 °F 78% 30.01 in 10.0 mi Calm Calm - N/A   Clear
10:52 PM 37.0 °F - 30.0 °F 76% 30.01 in 10.0 mi Calm Calm - N/A   Clear
11:52 PM 36.0 °F - 30.0 °F 79% 29.99 in 10.0 mi Calm Calm - N/A   Scattered Clouds